Weather reports worldwide

Advertisment
Warcop, United Kingdom (3226): temperature & dewpoint: 04.04.2020 19:00:00 - 10.04.2020 19:00:00 (BST)Warcop, United Kingdom (3226): temperature -20cm: 04.04.2020 19:00:00 - 10.04.2020 19:00:00 (BST)Warcop, United Kingdom (3226): wind speed & gusts: 04.04.2020 19:00:00 - 10.04.2020 19:00:00 (BST)Warcop, United Kingdom (3226): wind direction: 04.04.2020 19:00:00 - 10.04.2020 19:00:00 (BST)Warcop, United Kingdom (3226): reduced air pressure: 04.04.2020 19:00:00 - 10.04.2020 19:00:00 (BST)Warcop, United Kingdom (3226): visibility: 04.04.2020 19:00:00 - 10.04.2020 19:00:00 (BST)Warcop, United Kingdom (3226): precipitation: 04.04.2020 19:00:00 - 10.04.2020 19:00:00 (BST)
Date & Time tt [°C] td [°C] tt -20cm [°C] ff [km/h] ff [kn] fx [km/h] fx [kn] dd ppp [hPa] vv [km] rr [mm]
10.04.2020 19:00:00 17,7 9,6 - 15 8 - - WSW 1021,1 15 0,0
10.04.2020 18:00:00 18,4 10,6 - 16 9 - - SW 1020,9 15 0,0
10.04.2020 17:00:00 19,5 9,0 - 16 9 - - SW 1020,9 26 0,0
10.04.2020 16:00:00 19,4 9,5 - 21 11 - - S 1021,3 14 0,0
10.04.2020 15:00:00 20,2 9,8 - 5 3 - - SW 1021,7 18 0,0
10.04.2020 14:00:00 18,4 8,3 - 5 3 - - S 1022,4 15 0,0
10.04.2020 13:00:00 16,9 9,5 - 4 2 - - S 1023,3 16 0,0
10.04.2020 12:00:00 16,1 8,9 - 8 4 - - S 1023,7 20 0,0
10.04.2020 11:00:00 14,5 8,7 - 9 5 - - S 1024,2 14 0,0
10.04.2020 10:00:00 12,4 7,3 8,9 11 6 - - S 1024,5 16 0,0
10.04.2020 09:00:00 11,3 6,7 - 13 7 - - S 1024,7 17 0,0
10.04.2020 08:00:00 9,3 5,9 - 13 7 - - SSE 1024,9 16 0,0
10.04.2020 07:00:00 8,3 5,1 - 8 4 - - SSE 1024,9 17 0,0
10.04.2020 06:00:00 8,2 4,2 - 13 7 - - S 1025,0 17 0,0
10.04.2020 05:00:00 8,6 5,1 - 11 6 - - SSE 1025,0 17 0,0
10.04.2020 04:00:00 8,8 5,2 - 11 6 - - SSE 1025,4 20 0,0
10.04.2020 03:00:00 10,1 5,8 - 15 8 - - SSE 1025,4 23 0,0
10.04.2020 02:00:00 10,2 5,9 - 18 10 - - S 1025,6 30 0,0
10.04.2020 01:00:00 10,1 5,7 - 21 11 - - SSE 1025,9 30 0,0
10.04.2020 00:00:00 9,9 5,6 - 24 13 - - SSE 1026,4 50 0,0
09.04.2020 23:00:00 10,5 6,0 - 26 14 - - SSE 1026,2 50 0,0
09.04.2020 22:00:00 10,1 6,4 - 26 14 - - SE 1026,6 50 0,0
09.04.2020 21:00:00 9,9 6,4 - 28 15 - - SE 1026,6 50 0,0
09.04.2020 20:00:00 9,8 6,7 - 29 16 - - SE 1026,3 45 0,0
09.04.2020 19:00:00 9,9 7,1 - 31 17 - - SE 1026,3 30 0,0
09.04.2020 18:00:00 10,6 7,2 - 29 16 - - ESE 1026,3 30 0,0
09.04.2020 17:00:00 10,6 7,4 - 29 16 - - SE 1026,4 35 0,0
09.04.2020 16:00:00 11,6 8,1 - 34 18 - - SE 1026,6 30 0,0
09.04.2020 15:00:00 11,4 7,5 - 34 18 - - SSE 1027,1 30 0,0
09.04.2020 14:00:00 11,2 7,1 - 29 16 - - SE 1027,5 40 0,0
09.04.2020 13:00:00 11,0 6,5 - 29 16 - - ESE 1027,5 50 0,0
09.04.2020 12:00:00 10,7 7,0 - 29 16 - - ESE 1027,7 40 0,0
09.04.2020 11:00:00 10,1 6,4 - 29 16 - - ESE 1027,6 50 0,0
09.04.2020 10:00:00 9,8 6,3 8,7 26 14 - - E 1027,3 45 0,0
09.04.2020 09:00:00 8,7 6,1 - 24 13 - - E 1027,2 50 0,0
09.04.2020 08:00:00 6,8 6,0 - 5 3 - - SW 1026,9 40 0,0
09.04.2020 07:00:00 5,5 4,5 - 8 4 - - S 1026,6 30 0,0
09.04.2020 06:00:00 4,4 2,9 - 8 4 - - S 1026,2 35 0,0
09.04.2020 05:00:00 4,7 3,1 - 4 2 - - SE 1026,0 50 0,0
09.04.2020 04:00:00 5,4 3,7 - 2 1 - - SE 1025,8 50 0,0
09.04.2020 03:00:00 5,0 3,3 - 8 4 - - SSE 1025,9 50 0,0
09.04.2020 02:00:00 6,1 3,6 - 5 3 - - S 1025,9 50 0,0
09.04.2020 01:00:00 5,8 2,7 - 2 1 - - SSE 1026,1 50 0,0
09.04.2020 00:00:00 8,0 3,7 - 4 2 - - E 1025,7 50 0,0
08.04.2020 23:00:00 9,2 5,0 - 5 3 - - NNE 1025,4 50 0,0
08.04.2020 22:00:00 9,0 5,0 - 5 3 - - N 1025,1 50 0,0
08.04.2020 21:00:00 9,5 5,2 - 4 2 - - S 1024,6 50 0,0
08.04.2020 20:00:00 11,4 6,0 - 13 7 - - NW 1023,8 50 0,0
08.04.2020 19:00:00 12,9 6,1 - 13 7 - - NNW 1023,4 45 0,0
08.04.2020 18:00:00 15,3 5,7 - 15 8 - - W 1022,9 45 0,0
08.04.2020 17:00:00 15,3 6,5 - 18 10 - - WSW 1023,0 40 0,0
08.04.2020 16:00:00 15,4 6,2 - 21 11 - - WSW 1023,2 50 0,0
08.04.2020 15:00:00 15,2 6,4 - 16 9 - - WSW 1023,6 45 0,0
08.04.2020 14:00:00 15,2 6,5 - 16 9 - - W 1024,0 35 0,0
08.04.2020 13:00:00 14,3 5,7 - 16 9 - - SW 1024,4 29 0,0
08.04.2020 12:00:00 13,6 5,0 - 18 10 - - SW 1024,8 45 0,0
08.04.2020 11:00:00 11,8 3,4 - 15 8 - - WSW 1025,3 50 0,0
08.04.2020 10:00:00 10,6 3,3 8,4 4 2 - - SSW 1025,6 50 0,0
08.04.2020 09:00:00 10,2 3,1 - 4 2 - - S 1025,4 50 0,0
08.04.2020 08:00:00 8,8 3,3 - 8 4 - - S 1025,5 50 0,0
08.04.2020 07:00:00 6,0 2,2 - 4 2 - - E 1025,7 50 0,0
08.04.2020 06:00:00 6,8 2,6 - 8 4 - - S 1025,5 50 0,0
08.04.2020 05:00:00 5,4 1,7 - 4 2 - - SSE 1025,8 50 0,0
08.04.2020 04:00:00 4,2 0,9 - 4 2 - - S 1026,3 50 0,0
08.04.2020 03:00:00 5,6 2,1 - 5 3 - - S 1026,5 50 0,0
08.04.2020 02:00:00 7,1 2,6 - 9 5 - - S 1026,7 50 0,0
08.04.2020 01:00:00 5,7 2,2 - 5 3 - - SSE 1027,1 45 0,0
08.04.2020 00:00:00 5,5 2,1 - 8 4 - - SSE 1027,2 35 0,0
07.04.2020 23:00:00 7,0 2,9 - 4 2 - - S 1027,1 40 0,0
07.04.2020 22:00:00 9,0 4,0 - 9 5 - - S 1026,6 40 0,0
07.04.2020 21:00:00 8,1 3,4 - 8 4 - - S 1026,5 45 0,0
07.04.2020 20:00:00 10,2 3,7 - 8 4 - - SSW 1026,2 50 0,0
07.04.2020 19:00:00 12,5 4,3 - 13 7 - - WSW 1025,9 35 0,0
07.04.2020 18:00:00 13,3 3,3 - 22 12 - - WSW 1026,2 35 0,0
07.04.2020 17:00:00 13,6 3,4 - 18 10 - - WSW 1026,4 35 0,0
07.04.2020 16:00:00 14,1 3,4 - 18 10 - - SW 1026,6 35 0,0
07.04.2020 15:00:00 13,8 3,7 - 16 9 - - SSW 1027,3 45 0,0
07.04.2020 14:00:00 13,0 4,2 - 24 13 - - SW 1027,9 40 0,0
07.04.2020 13:00:00 12,1 3,5 - 18 10 - - SSW 1028,4 45 0,0
07.04.2020 12:00:00 12,2 5,1 - 11 6 - - SSW 1028,6 30 0,0
07.04.2020 11:00:00 10,5 6,1 - 11 6 - - SSW 1029,1 35 0,0
07.04.2020 10:00:00 8,2 5,2 8,2 2 1 - - WSW 1029,6 26 0,0
07.04.2020 09:00:00 7,4 4,6 - 2 1 - - SW 1029,5 18 0,0
07.04.2020 08:00:00 6,5 4,8 - 5 3 - - S 1029,3 23 0,0
07.04.2020 07:00:00 6,1 4,7 - 9 5 - - S 1028,8 16 0,0
07.04.2020 06:00:00 6,2 4,8 - 5 3 - - S 1028,4 17 0,0
07.04.2020 05:00:00 6,5 4,8 - 9 5 - - SW 1028,1 19 0,0
07.04.2020 04:00:00 6,3 4,8 - 4 2 - - S 1027,6 18 0,0
07.04.2020 03:00:00 6,4 4,8 - 8 4 - - S 1027,2 18 0,0
07.04.2020 02:00:00 6,3 4,4 - 5 3 - - S 1026,8 20 0,0
07.04.2020 01:00:00 4,5 1,9 - 4 2 - - S 1026,4 23 0,0
07.04.2020 00:00:00 4,9 2,8 - 2 1 - - SSW 1025,4 26 0,0
06.04.2020 23:00:00 5,6 2,9 - 11 6 - - SSW 1024,5 22 0,0
06.04.2020 22:00:00 7,4 3,5 - 18 10 - - SSW 1023,8 30 0,0
06.04.2020 21:00:00 5,2 0,9 - 4 2 - - W 1023,0 25 0,0
06.04.2020 20:00:00 8,3 3,0 - 15 8 - - WSW 1021,5 30 0,0
06.04.2020 19:00:00 9,6 3,2 - 21 11 - - W 1020,2 40 0,0
06.04.2020 18:00:00 10,6 2,6 - 24 13 - - W 1018,8 35 0,0
06.04.2020 17:00:00 11,3 2,9 - 26 14 - - W 1017,7 30 0,0
06.04.2020 16:00:00 11,3 2,2 - 28 15 - - W 1016,6 30 0,0
06.04.2020 15:00:00 11,3 3,2 - 29 16 46 25 WSW 1015,6 40 0,0
06.04.2020 14:00:00 10,9 3,0 - 34 18 48 26 W 1014,5 40 0,0
06.04.2020 13:00:00 10,6 2,6 - 29 16 48 26 W 1013,4 30 0,0
06.04.2020 12:00:00 10,5 4,1 - 35 19 52 28 WSW 1011,9 29 0,0
06.04.2020 11:00:00 9,5 4,7 - 35 19 50 27 WSW 1010,7 35 0,0
06.04.2020 10:00:00 8,7 6,5 8,0 22 12 - - WSW 1009,7 21 0,0
06.04.2020 09:00:00 8,1 6,6 - 21 11 - - WSW 1008,6 7 0,0
06.04.2020 08:00:00 7,8 6,5 - 26 14 - - WSW 1007,4 12 0,0
06.04.2020 07:00:00 8,4 6,5 - 13 7 - - WSW 1006,6 18 0,0
06.04.2020 06:00:00 8,6 7,0 - 22 12 - - WSW 1005,4 17 0,0
06.04.2020 05:00:00 8,8 7,9 - 21 11 57 31 WSW 1004,5 18 1,0
06.04.2020 04:00:00 11,2 9,8 - 34 18 48 26 SSW 1003,0 13 0,4
06.04.2020 03:00:00 11,9 9,2 - 24 13 - - S 1002,5 35 0,4
06.04.2020 02:00:00 12,0 8,3 - 28 15 - - SSE 1002,7 30 0,6
06.04.2020 01:00:00 12,8 7,7 - 28 15 52 28 S 1003,1 28 0,0
06.04.2020 00:00:00 13,3 7,0 - 31 17 46 25 S 1003,1 27 0,0
05.04.2020 23:00:00 14,0 6,2 - 24 13 - - SSE 1003,7 45 0,0
05.04.2020 22:00:00 14,6 5,1 - 24 13 54 29 SE 1004,0 50 0,0
05.04.2020 21:00:00 15,4 4,2 - 37 20 61 33 SE 1003,9 50 0,0
05.04.2020 20:00:00 15,3 4,1 - 35 19 52 28 SE 1004,0 50 0,0
05.04.2020 19:00:00 16,4 4,3 - 31 17 55 30 SSE 1004,3 45 0,0
05.04.2020 18:00:00 17,2 4,3 - 39 21 57 31 SSE 1004,6 50 0,0
05.04.2020 17:00:00 17,7 4,0 - 41 22 67 36 S 1005,1 50 0,0
05.04.2020 16:00:00 17,9 5,2 - 35 19 57 31 SSE 1005,8 40 0,0
05.04.2020 15:00:00 16,2 3,7 - 39 21 59 32 SSE 1007,2 30 0,0
05.04.2020 14:00:00 15,2 4,1 - 37 20 54 29 SSE 1008,1 30 0,0
05.04.2020 13:00:00 14,3 4,4 - 39 21 61 33 SSE 1008,9 35 0,0
05.04.2020 12:00:00 13,2 2,9 - 50 27 65 35 S 1009,6 40 0,0
05.04.2020 11:00:00 13,6 3,4 - 37 20 52 28 SSE 1010,6 40 0,0
05.04.2020 10:00:00 12,3 3,4 6,9 37 20 55 30 SSE 1011,4 35 0,0
05.04.2020 09:00:00 10,6 3,1 - 26 14 - - SSE 1012,3 45 0,0
05.04.2020 08:00:00 9,1 2,4 - 21 11 - - SE 1013,0 40 0,0
05.04.2020 07:00:00 7,9 1,6 - 22 12 - - SE 1013,4 50 0,0
05.04.2020 06:00:00 8,3 1,6 - 28 15 46 25 SSE 1013,3 50 0,0
05.04.2020 05:00:00 8,6 1,4 - 28 15 - - S 1013,8 50 0,0
05.04.2020 04:00:00 8,0 1,5 - 37 20 54 29 S 1014,2 50 0,0
05.04.2020 03:00:00 6,9 2,0 - 18 10 - - SSE 1014,8 45 0,0
05.04.2020 02:00:00 8,0 2,6 - 18 10 - - SE 1015,6 45 0,0
05.04.2020 01:00:00 8,3 3,4 - 22 12 - - SSE 1016,1 45 0,0
05.04.2020 00:00:00 8,4 3,9 - 22 12 - - SSE 1016,0 40 0,0
04.04.2020 23:00:00 8,3 4,4 - 22 12 - - SSE 1015,9 45 0,0
04.04.2020 22:00:00 8,3 4,7 - 24 13 - - S 1015,6 35 0,0
04.04.2020 21:00:00 8,6 5,1 - 18 10 - - SSE 1015,6 35 0,0
04.04.2020 20:00:00 9,0 5,3 - 18 10 - - S 1015,4 40 0,0
04.04.2020 19:00:00 9,3 5,2 - 18 10 - - S 1015,3 40 0,0

tt = temperature
td = dewpoint
tt -20cm = temperature -20cm
ff = wind speed
fx = gusts
dd = wind direction
ppp = reduced air pressure
vv = visibility
rr = precipitation

Next stations